Location: Caltech
(34.1382°N, 118.1253°W)
Time: 04:15:20
(UTC-07:00)

NOAA 19 - Visible Passes

Search period start: 01 September 2014 00:00
Search period end: 11 September 2014 00:00
Orbit: 843 x 863 km, 98.9° (Epoch: 07 September)

Date Brightness Start Highest point End Pass type
(mag) Time Alt. Az. Time Alt. Az. Time Alt. Az.
01 Sep 7.2 02:41:25 10° NNE 02:43:45 25° NE 02:43:45 25° NE visible
01 Sep 7.0 04:23:25 10° NNW 04:25:48 17° NW 04:25:48 17° NW visible
02 Sep 7.4 02:30:32 10° NNE 02:32:28 21° NE 02:32:28 21° NE visible
02 Sep 6.9 04:11:55 10° NNW 04:14:31 20° NW 04:14:31 20° NW visible
03 Sep 7.7 02:19:44 10° NE 02:21:10 17° NE 02:21:10 17° NE visible
03 Sep 6.8 04:00:32 10° N 04:03:14 23° NW 04:03:14 23° NW visible
04 Sep 7.9 02:09:02 10° NE 02:09:53 14° NE 02:09:53 14° NE visible
04 Sep 6.7 03:49:14 10° N 03:51:56 26° NNW 03:51:56 26° NNW visible
05 Sep 8.1 01:58:29 10° NE 01:58:36 10° NE 01:58:36 10° NE visible
05 Sep 6.7 03:38:00 10° N 03:40:39 27° NNW 03:40:39 27° NNW visible
06 Sep 6.8 03:26:50 10° N 03:29:21 27° N 03:29:21 27° N visible
07 Sep 6.9 03:15:43 10° N 03:18:04 26° N 03:18:04 26° N visible
08 Sep 7.1 03:04:39 10° NNE 03:06:46 24° NNE 03:06:46 24° NNE visible
08 Sep 7.4 04:48:49 10° NW 04:48:49 10° NW 04:48:49 10° NW visible
09 Sep 7.3 02:53:38 10° NNE 02:55:28 22° NNE 02:55:28 22° NNE visible
09 Sep 7.3 04:36:28 10° NNW 04:37:31 12° NW 04:37:31 12° NW visible
10 Sep 7.5 02:42:41 10° NNE 02:44:10 19° NNE 02:44:10 19° NNE visible
10 Sep 7.2 04:24:44 10° NNW 04:26:13 15° NW 04:26:13 15° NW visible
